UKV74AS KFLL-KEYW

Flight info

Callsign UKV74AS
Flight time 0h 39m
Altitude 20000
Route MAYNR3 MAYNR FNTSY FNTSY1
Aircraft B738/M-SDE2E3FGIRWY/LB1

Departure

Time 2026-05-05 19:43
Airport Fort Lauderdale Hollywood International Airport (KFLL)

Arrival

Time 2026-05-05 20:23
Airport Key West International Airport (KEYW)
Time Latitude Longitude Altitude Speed Heading
2026-05-05 19:25 26.07423 -80.13941 19 ft 0 kts 212°
2026-05-05 19:26 26.07406 -80.13964 19 ft 11 kts 248°
2026-05-05 19:26 26.07402 -80.13994 20 ft 0 kts 265°
2026-05-05 19:26 26.07402 -80.13993 20 ft 0 kts 265°
2026-05-05 19:29 26.07403 -80.13993 20 ft 0 kts 265°
2026-05-05 19:29 26.07402 -80.14000 20 ft 0 kts 266°
2026-05-05 19:29 26.07412 -80.14004 21 ft 0 kts 15°
2026-05-05 19:30 26.07421 -80.14002 21 ft 0 kts
2026-05-05 19:30 26.07430 -80.14001 21 ft 0 kts
2026-05-05 19:31 26.07441 -80.13999 20 ft 1 kts
2026-05-05 19:31 26.07469 -80.14006 21 ft 8 kts 331°
2026-05-05 19:31 26.07486 -80.14081 22 ft 14 kts 272°
2026-05-05 19:31 26.07486 -80.14144 23 ft 5 kts 266°
2026-05-05 19:32 26.07489 -80.14190 23 ft 10 kts 291°
2026-05-05 19:32 26.07533 -80.14236 24 ft 8 kts 318°
2026-05-05 19:32 26.07557 -80.14323 24 ft 16 kts 274°
2026-05-05 19:32 26.07559 -80.14436 25 ft 0 kts 269°
2026-05-05 19:33 26.07559 -80.14439 25 ft 0 kts 269°
2026-05-05 19:33 26.07559 -80.14469 25 ft 24 kts 270°
2026-05-05 19:33 26.07559 -80.14482 25 ft 0 kts 270°
2026-05-05 19:35 26.07559 -80.14495 25 ft 5 kts 270°
2026-05-05 19:35 26.07559 -80.14517 25 ft 2 kts 269°
2026-05-05 19:36 26.07558 -80.14573 24 ft 13 kts 268°
2026-05-05 19:36 26.07562 -80.14704 23 ft 19 kts 275°
2026-05-05 19:36 26.07560 -80.14847 21 ft 18 kts 272°
2026-05-05 19:36 26.07564 -80.14985 19 ft 18 kts 271°
2026-05-05 19:37 26.07545 -80.15097 19 ft 14 kts 219°
2026-05-05 19:37 26.07456 -80.15127 19 ft 13 kts 179°
2026-05-05 19:37 26.07366 -80.15126 19 ft 13 kts 180°
2026-05-05 19:37 26.07270 -80.15127 19 ft 14 kts 179°
2026-05-05 19:38 26.07170 -80.15123 20 ft 14 kts 179°
2026-05-05 19:38 26.07070 -80.15125 24 ft 14 kts 180°
2026-05-05 19:38 26.06969 -80.15126 23 ft 15 kts 181°
2026-05-05 19:38 26.06858 -80.15130 22 ft 17 kts 181°
2026-05-05 19:39 26.06757 -80.15132 22 ft 0 kts 180°
2026-05-05 19:39 26.06717 -80.15157 23 ft 12 kts 240°
2026-05-05 19:39 26.06696 -80.15248 25 ft 12 kts 267°
2026-05-05 19:39 26.06700 -80.15341 27 ft 12 kts 277°
2026-05-05 19:40 26.06699 -80.15430 28 ft 11 kts 265°
2026-05-05 19:40 26.06694 -80.15517 24 ft 11 kts 270°
2026-05-05 19:40 26.06699 -80.15602 23 ft 11 kts 271°
2026-05-05 19:40 26.06698 -80.15685 22 ft 11 kts 273°
2026-05-05 19:41 26.06694 -80.15731 22 ft 2 kts 221°
2026-05-05 19:41 26.06682 -80.15737 23 ft 2 kts 203°
2026-05-05 19:41 26.06651 -80.15741 21 ft 8 kts 181°
2026-05-05 19:41 26.06599 -80.15720 21 ft 8 kts 122°
2026-05-05 19:42 26.06591 -80.15676 23 ft 0 kts 92°
2026-05-05 19:43 26.06589 -80.15400 23 ft 77 kts 90°
2026-05-05 19:43 26.06584 -80.14514 41 ft 147 kts 89°
2026-05-05 19:43 26.06576 -80.13378 793 ft 149 kts 91°
2026-05-05 19:44 26.06624 -80.12189 1548 ft 158 kts 82°
2026-05-05 19:44 26.06646 -80.10941 2363 ft 164 kts 87°
2026-05-05 19:44 26.06660 -80.09641 3131 ft 171 kts 87°
2026-05-05 19:44 26.06694 -80.08312 3889 ft 176 kts 87°
2026-05-05 19:45 26.06716 -80.06934 4619 ft 181 kts 90°
2026-05-05 19:45 26.06706 -80.05530 5333 ft 183 kts 90°
2026-05-05 19:45 26.06695 -80.04110 6053 ft 184 kts 88°
2026-05-05 19:45 26.06723 -80.02690 6754 ft 183 kts 88°
2026-05-05 19:46 26.06744 -80.01272 7409 ft 183 kts 89°
2026-05-05 19:46 26.06568 -79.99882 7983 ft 183 kts 121°
2026-05-05 19:46 26.05668 -79.98959 8492 ft 176 kts 167°
2026-05-05 19:46 26.04510 -79.98911 8952 ft 160 kts 191°
2026-05-05 19:47 26.03381 -79.99132 8931 ft 176 kts 202°
2026-05-05 19:47 26.02242 -79.99700 8989 ft 181 kts 210°
2026-05-05 19:47 26.01115 -80.00376 9065 ft 190 kts 211°
2026-05-05 19:47 25.99926 -80.01097 9148 ft 199 kts 211°
2026-05-05 19:48 25.98688 -80.01841 9213 ft 206 kts 211°
2026-05-05 19:48 25.97403 -80.02602 9271 ft 213 kts 211°
2026-05-05 19:48 25.96072 -80.03380 9337 ft 220 kts 210°
2026-05-05 19:48 25.94694 -80.04177 9388 ft 226 kts 210°
2026-05-05 19:49 25.93276 -80.04990 9446 ft 232 kts 210°
2026-05-05 19:49 25.92324 -80.05534 9538 ft 233 kts 210°
2026-05-05 19:49 25.90390 -80.06630 9769 ft 233 kts 210°
2026-05-05 19:49 25.88944 -80.07447 9924 ft 233 kts 210°
2026-05-05 19:50 25.87492 -80.08264 10062 ft 234 kts 210°
2026-05-05 19:50 25.86041 -80.09081 10206 ft 234 kts 210°
2026-05-05 19:50 25.84580 -80.09902 10332 ft 235 kts 210°
2026-05-05 19:50 25.83121 -80.10721 10467 ft 235 kts 210°
2026-05-05 19:51 25.81671 -80.11534 10592 ft 236 kts 210°
2026-05-05 19:51 25.80206 -80.12355 10718 ft 236 kts 210°
2026-05-05 19:51 25.78736 -80.13179 10852 ft 237 kts 210°
2026-05-05 19:51 25.77262 -80.14005 10983 ft 237 kts 210°
2026-05-05 19:52 25.76286 -80.14551 11062 ft 238 kts 210°
2026-05-05 19:52 25.74789 -80.15390 11178 ft 238 kts 210°
2026-05-05 19:52 25.73312 -80.16217 11210 ft 244 kts 210°
2026-05-05 19:52 25.71772 -80.17080 11244 ft 252 kts 211°
2026-05-05 19:53 25.70211 -80.17956 11292 ft 260 kts 210°
2026-05-05 19:53 25.68515 -80.18907 11351 ft 275 kts 210°
2026-05-05 19:53 25.66774 -80.19884 11443 ft 286 kts 210°
2026-05-05 19:53 25.64969 -80.20897 11529 ft 296 kts 210°
2026-05-05 19:54 25.63095 -80.21945 11615 ft 306 kts 210°
2026-05-05 19:54 25.61155 -80.23029 11680 ft 316 kts 210°
2026-05-05 19:54 25.59163 -80.24140 11754 ft 325 kts 210°
2026-05-05 19:54 25.57139 -80.25269 11819 ft 334 kts 210°
2026-05-05 19:55 25.55038 -80.26440 11900 ft 342 kts 210°
2026-05-05 19:55 25.52898 -80.27631 12061 ft 346 kts 210°
2026-05-05 19:55 25.50740 -80.28833 12326 ft 346 kts 210°
2026-05-05 19:55 25.48587 -80.30030 12592 ft 347 kts 210°
2026-05-05 19:56 25.46479 -80.31204 12810 ft 348 kts 210°
2026-05-05 19:56 25.44306 -80.32417 12984 ft 351 kts 210°
2026-05-05 19:56 25.42123 -80.33633 13238 ft 351 kts 210°
2026-05-05 19:56 25.39939 -80.34848 13488 ft 351 kts 210°
2026-05-05 19:57 25.37749 -80.36067 13696 ft 353 kts 210°
2026-05-05 19:57 25.35555 -80.37290 13916 ft 353 kts 210°
2026-05-05 19:57 25.33352 -80.38521 14089 ft 355 kts 210°
2026-05-05 19:57 25.31144 -80.39757 14265 ft 356 kts 210°
2026-05-05 19:58 25.28958 -80.40976 14448 ft 357 kts 210°
2026-05-05 19:58 25.26732 -80.42208 14599 ft 359 kts 210°
2026-05-05 19:58 25.24490 -80.43442 14753 ft 361 kts 210°
2026-05-05 19:58 25.22178 -80.44554 14906 ft 365 kts 202°
2026-05-05 19:59 25.19740 -80.45376 15060 ft 368 kts 199°
2026-05-05 19:59 25.17260 -80.46135 15213 ft 370 kts 199°
2026-05-05 19:59 25.14779 -80.46890 15353 ft 371 kts 199°
2026-05-05 19:59 25.12289 -80.47665 15502 ft 372 kts 200°
2026-05-05 20:00 25.09794 -80.48460 15640 ft 373 kts 200°
2026-05-05 20:00 25.07300 -80.49268 15781 ft 374 kts 200°
2026-05-05 20:00 25.04797 -80.50086 15914 ft 376 kts 200°
2026-05-05 20:00 25.02279 -80.50913 15964 ft 379 kts 200°
2026-05-05 20:01 24.99734 -80.51751 15970 ft 384 kts 200°
2026-05-05 20:01 24.97187 -80.52592 15982 ft 388 kts 200°
2026-05-05 20:01 24.94588 -80.53452 15989 ft 392 kts 200°
2026-05-05 20:01 24.91960 -80.54318 15986 ft 396 kts 200°
2026-05-05 20:02 24.89304 -80.55184 15987 ft 399 kts 200°
2026-05-05 20:02 24.86633 -80.56069 15982 ft 401 kts 203°
2026-05-05 20:02 24.84236 -80.57565 15981 ft 394 kts 224°
2026-05-05 20:02 24.82487 -80.59856 15985 ft 390 kts 242°
2026-05-05 20:03 24.81410 -80.62578 15977 ft 387 kts 258°
2026-05-05 20:03 24.80971 -80.65494 15992 ft 387 kts 264°
2026-05-05 20:03 24.80635 -80.68441 15979 ft 389 kts 264°
2026-05-05 20:03 24.80318 -80.71389 15765 ft 396 kts 264°
2026-05-05 20:04 24.79992 -80.74434 15534 ft 403 kts 264°
2026-05-05 20:04 24.79655 -80.77527 15371 ft 402 kts 264°
2026-05-05 20:04 24.79318 -80.80547 15322 ft 393 kts 264°
2026-05-05 20:04 24.78987 -80.83469 15270 ft 385 kts 264°
2026-05-05 20:05 24.78659 -80.86364 15226 ft 378 kts 264°
2026-05-05 20:05 24.78337 -80.89212 15190 ft 372 kts 264°
2026-05-05 20:05 24.78023 -80.92013 15149 ft 367 kts 264°
2026-05-05 20:05 24.77711 -80.94786 15121 ft 362 kts 264°
2026-05-05 20:06 24.77396 -80.97522 15094 ft 358 kts 264°
2026-05-05 20:06 24.77076 -81.00234 15073 ft 354 kts 264°
2026-05-05 20:06 24.76641 -81.02926 14650 ft 364 kts 253°
2026-05-05 20:06 24.75671 -81.05542 14231 ft 373 kts 247°
2026-05-05 20:07 24.74583 -81.08138 13782 ft 380 kts 246°
2026-05-05 20:07 24.73461 -81.10797 13270 ft 386 kts 246°
2026-05-05 20:07 24.72336 -81.13505 12770 ft 391 kts 247°
2026-05-05 20:07 24.71218 -81.16246 12330 ft 393 kts 247°
2026-05-05 20:08 24.70114 -81.18992 11997 ft 392 kts 247°
2026-05-05 20:08 24.69033 -81.21701 11760 ft 389 kts 247°
2026-05-05 20:08 24.67962 -81.24395 11738 ft 381 kts 247°
2026-05-05 20:08 24.66912 -81.27041 11732 ft 370 kts 247°
2026-05-05 20:09 24.65922 -81.29531 11708 ft 345 kts 248°
2026-05-05 20:09 24.64981 -81.31897 11386 ft 333 kts 248°
2026-05-05 20:09 24.64058 -81.34220 10933 ft 329 kts 248°
2026-05-05 20:09 24.63145 -81.36523 10447 ft 327 kts 247°
2026-05-05 20:10 24.62237 -81.38813 9963 ft 325 kts 247°
2026-05-05 20:10 24.61334 -81.41089 9440 ft 324 kts 247°
2026-05-05 20:10 24.60449 -81.43325 8922 ft 323 kts 248°
2026-05-05 20:10 24.59554 -81.45593 8275 ft 325 kts 248°
2026-05-05 20:11 24.58666 -81.47895 7600 ft 328 kts 249°
2026-05-05 20:11 24.57536 -81.50079 6922 ft 334 kts 227°
2026-05-05 20:11 24.55566 -81.51444 6273 ft 342 kts 199°
2026-05-05 20:11 24.53183 -81.51606 5590 ft 350 kts 170°
2026-05-05 20:12 24.50967 -81.50498 4914 ft 355 kts 141°
2026-05-05 20:12 24.49460 -81.48375 4232 ft 357 kts 113°
2026-05-05 20:12 24.49013 -81.45724 3560 ft 355 kts 84°
2026-05-05 20:12 24.49737 -81.43174 2904 ft 350 kts 57°
2026-05-05 20:13 24.51403 -81.41342 2373 ft 342 kts 29°
2026-05-05 20:13 24.53602 -81.40589 2188 ft 327 kts
2026-05-05 20:13 24.55772 -81.41150 2056 ft 315 kts 329°
2026-05-05 20:13 24.57270 -81.42786 1992 ft 306 kts 298°
2026-05-05 20:14 24.58048 -81.44923 1991 ft 297 kts 288°
2026-05-05 20:14 24.58362 -81.47134 1980 ft 293 kts 266°
2026-05-05 20:14 24.57959 -81.49301 1988 ft 291 kts 252°
2026-05-05 20:14 24.57231 -81.51431 2000 ft 304 kts 248°
2026-05-05 20:15 24.56373 -81.53602 2002 ft 315 kts 246°
2026-05-05 20:15 24.55727 -81.55913 1958 ft 315 kts 269°
2026-05-05 20:15 24.55933 -81.58199 1977 ft 288 kts 276°
2026-05-05 20:15 24.55901 -81.60287 1977 ft 266 kts 266°
2026-05-05 20:16 24.55798 -81.62258 1840 ft 253 kts 269°
2026-05-05 20:16 24.55748 -81.64152 1657 ft 242 kts 270°
2026-05-05 20:16 24.55719 -81.65958 1497 ft 227 kts 270°
2026-05-05 20:16 24.55696 -81.67591 1391 ft 200 kts 271°
2026-05-05 20:17 24.55619 -81.69057 1094 ft 190 kts 266°
2026-05-05 20:17 24.55585 -81.70486 685 ft 181 kts 272°
2026-05-05 20:17 24.55656 -81.71804 555 ft 159 kts 272°
2026-05-05 20:17 24.55606 -81.73023 451 ft 160 kts 268°
2026-05-05 20:18 24.55626 -81.74247 208 ft 165 kts 271°
2026-05-05 20:18 24.55594 -81.75487 63 ft 155 kts 271°
2026-05-05 20:18 24.55516 -81.76542 656 ft 142 kts 253°
2026-05-05 20:18 24.54747 -81.77292 964 ft 157 kts 182°
2026-05-05 20:19 24.53728 -81.77048 1526 ft 160 kts 152°
2026-05-05 20:19 24.52955 -81.76181 1882 ft 171 kts 110°
2026-05-05 20:19 24.52745 -81.74837 1596 ft 193 kts 90°
2026-05-05 20:19 24.52749 -81.73464 1704 ft 158 kts 88°
2026-05-05 20:20 24.52748 -81.72280 1855 ft 164 kts 85°
2026-05-05 20:20 24.52795 -81.70961 1735 ft 179 kts 85°
2026-05-05 20:20 24.52974 -81.69588 1278 ft 175 kts 66°
2026-05-05 20:20 24.53750 -81.68665 786 ft 162 kts 13°
2026-05-05 20:21 24.54728 -81.68853 568 ft 146 kts 310°
2026-05-05 20:21 24.55249 -81.69859 647 ft 159 kts 283°
2026-05-05 20:21 24.55481 -81.70912 663 ft 134 kts 280°
2026-05-05 20:21 24.55584 -81.71958 501 ft 140 kts 275°
2026-05-05 20:22 24.55624 -81.73036 345 ft 143 kts 273°
2026-05-05 20:22 24.55610 -81.74138 174 ft 145 kts 273°
2026-05-05 20:22 24.55619 -81.75240 27 ft 140 kts 267°
2026-05-05 20:22 24.55613 -81.76087 14 ft 76 kts 269°
2026-05-05 20:23 24.55612 -81.76488 12 ft 27 kts 269°
2026-05-05 20:23 24.55576 -81.76634 12 ft 17 kts 208°
2026-05-05 20:23 24.55517 -81.76580 11 ft 13 kts 92°
2026-05-05 20:23 24.55520 -81.76479 11 ft 13 kts 87°
2026-05-05 20:24 24.55520 -81.76381 11 ft 13 kts 89°
2026-05-05 20:24 24.55524 -81.76286 12 ft 12 kts 88°
2026-05-05 20:24 24.55524 -81.76193 12 ft 12 kts 89°
2026-05-05 20:24 24.55524 -81.76090 12 ft 19 kts 88°
2026-05-05 20:25 24.55528 -81.75923 16 ft 22 kts 90°
2026-05-05 20:25 24.55530 -81.75756 19 ft 22 kts 89°
2026-05-05 20:25 24.55532 -81.75594 19 ft 21 kts 91°
2026-05-05 20:25 24.55529 -81.75476 19 ft 11 kts 91°
2026-05-05 20:26 24.55502 -81.75452 19 ft 5 kts 175°
2026-05-05 20:26 24.55468 -81.75450 19 ft 5 kts 176°
2026-05-05 20:26 24.55445 -81.75449 19 ft 0 kts 179°